, AK

(GMT )
Portage Glacier

Weather History for PATO - September, 2013

Change the Weather History Date:

Tuesday, September 3, 2013

  Actual Average Record
Temperature  
Mean Temperature 52 °F -  
Max Temperature 59 °F - - ()
Min Temperature 50 °F - - ()
Degree Days  
Heating Degree Days 12    
Growing Degree Days 2 (Base 50)    
Moisture  
Dew Point 51 °F    
Average Humidity 89    
Maximum Humidity 100    
Minimum Humidity 80    
Precipitation  
Precipitation 0.99 in - - ()
Sea Level Pressure  
Sea Level Pressure 29.47 in    
Wind  
Wind Speed 17 mph (ESE)    
Max Wind Speed 23 mph    
Max Gust Speed 44 mph    
Visibility 3 miles    
Events Rain    
Averages and records for this station are not official NWS values.
T = Trace of Precipitation, MM = Missing Value Source: NWS Daily Summary

Daily Weather History Graph

Daily Weather History Graph

Search for Another Location

Airport or City:

Trip Planner

Search our weather history database for the weather conditions in past years. The results will help you decide how hot, cold, wet, or windy it might be!

Date:

Astronomy

Sep. 03, 2013 Rise Set
Actual Time 6:54 AM AKDT 8:53 PM AKDT
Civil Twilight 6:08 AM AKDT 9:38 PM AKDT
Nautical Twilight 5:09 AM AKDT 10:37 PM AKDT
Astronomical Twilight 3:52 AM AKDT 11:51 PM AKDT
Moon 5:05 AM AKDT (9/3) 7:47 PM AKDT (9/3)
Length of Visible Light 15h 30m
Length of Day
13h 58m
Waning Crescent, 3% of the Moon is Illuminated
Sep 3
Waning Crescent
Sep 5
New
Sep 12
First Quarter
Sep 19
Full
Sep 26
Last Quarter

Hourly Weather History & Observations

Time (AKDT) Temp. Dew Point Humidity Pressure Visibility Wind Dir Wind Speed Gust Speed Precip Events Conditions
12:53 AM 54.0 °F 48.0 °F 80% 29.65 in 7.0 mi East 19.6 mph 40.3 mph 0.03 in Rain Light Rain
1:53 AM 53.1 °F 48.9 °F 86% 29.62 in 8.0 mi ESE 23.0 mph 38.0 mph 0.04 in Rain Light Rain
2:53 AM 55.0 °F 48.9 °F 80% 29.62 in 9.0 mi ESE 19.6 mph 38.0 mph 0.04 in Rain Light Rain
3:53 AM 53.1 °F 48.0 °F 83% 29.60 in 5.0 mi East 18.4 mph 35.7 mph 0.08 in Rain Rain
4:53 AM 54.0 °F 48.0 °F 80% 29.53 in 5.0 mi East 13.8 mph 41.4 mph 0.16 in Rain Rain
5:53 AM 53.1 °F 48.9 °F 86% 29.53 in 7.0 mi ESE 17.3 mph 29.9 mph 0.15 in Rain Light Rain
6:53 AM 52.0 °F 48.9 °F 89% 29.50 in 6.0 mi ESE 16.1 mph 28.8 mph 0.04 in Rain Light Rain
7:16 AM 50.0 °F 48.9 °F 96% 29.49 in 2.0 mi SE 16.1 mph 25.3 mph 0.03 in Rain Rain
7:25 AM 50.0 °F 50.0 °F 100% 29.49 in 1.8 mi SE 12.7 mph 25.3 mph 0.06 in Rain Rain
7:34 AM 51.1 °F 50.0 °F 96% 29.48 in 2.5 mi SE 11.5 mph 26.5 mph 0.07 in Rain Light Rain
7:53 AM 54.0 °F 50.0 °F 86% 29.46 in 2.5 mi SE 19.6 mph 34.5 mph 0.09 in Rain Light Rain
8:23 AM 53.1 °F 50.0 °F 89% 29.47 in 3.0 mi ESE 19.6 mph 36.8 mph 0.01 in Rain Light Rain
8:39 AM 54.0 °F 50.0 °F 86% 29.46 in 2.5 mi SE 11.5 mph 32.2 mph 0.02 in Rain Light Rain
8:53 AM 53.1 °F 50.0 °F 89% 29.45 in 2.5 mi ESE 20.7 mph 31.1 mph 0.02 in Rain Light Rain
9:02 AM 53.1 °F 50.0 °F 89% 29.45 in 2.0 mi SE 16.1 mph 31.1 mph 0.01 in Rain Light Rain
9:12 AM 53.1 °F 51.1 °F 93% 29.45 in 1.8 mi SE 16.1 mph 33.4 mph 0.02 in Rain Light Rain
9:19 AM 54.0 °F 51.1 °F 90% 29.45 in 2.0 mi East 23.0 mph 33.4 mph 0.02 in Rain Light Rain
9:32 AM 54.0 °F 51.1 °F 90% 29.44 in 1.5 mi ESE 13.8 mph 34.5 mph 0.03 in Rain Light Rain
9:53 AM 54.0 °F 51.1 °F 90% 29.44 in 1.8 mi ESE 21.9 mph 43.7 mph 0.05 in Rain Light Rain
10:00 AM 54.0 °F 51.1 °F 90% 29.43 in 2.0 mi East 17.3 mph 43.7 mph 0.00 in Rain Light Rain
10:53 AM 55.0 °F 51.1 °F 86% 29.43 in 1.8 mi ESE 16.1 mph 31.1 mph 0.04 in Rain Light Rain
11:16 AM 55.0 °F 52.0 °F 89% 29.43 in 2.0 mi ESE 13.8 mph 33.4 mph 0.02 in Rain Light Rain
11:53 AM 55.0 °F 52.0 °F 89% 29.42 in 2.0 mi ESE 11.5 mph 32.2 mph 0.05 in Rain Light Rain
12:36 PM 54.0 °F 52.0 °F 93% 29.41 in 1.2 mi SE 11.5 mph 26.5 mph 0.06 in Rain Rain
12:53 PM 55.0 °F 52.0 °F 89% 29.40 in 1.5 mi ESE 15.0 mph 28.8 mph 0.10 in Rain Light Rain
1:08 PM 54.0 °F 52.0 °F 93% 29.40 in 2.0 mi SE 13.8 mph 23.0 mph 0.02 in Rain Light Rain
1:35 PM 55.0 °F 52.0 °F 89% 29.39 in 1.5 mi ESE 15.0 mph 34.5 mph 0.06 in Rain Light Rain
1:53 PM 55.9 °F 53.1 °F 90% 29.39 in 2.0 mi ESE 16.1 mph 32.2 mph 0.09 in Rain Light Rain
1:57 PM 55.9 °F 53.1 °F 90% 29.39 in 3.0 mi ESE 10.4 mph 26.5 mph 0.00 in Rain Light Rain
2:53 PM 59.0 °F 53.1 °F 81% 29.38 in 9.0 mi East 19.6 mph 31.1 mph 0.01 in   Overcast
3:53 PM - - N/A% - - North - - 0.00 in   Unknown
4:53 PM - - N/A% - - North - - N/A   Unknown
5:53 PM - - N/A% - - North - - N/A   Unknown
6:53 PM - - N/A% - - North - - N/A   Unknown
7:53 PM - - N/A% - - North - - N/A   Unknown
8:53 PM - - N/A% - - North - - N/A   Unknown
9:53 PM - - N/A% - - North - - N/A   Unknown
10:53 PM - - N/A% - - North - - N/A   Unknown
11:53 PM - - N/A% - - North - - N/A   Unknown